| time (UTC) | temp C | wind direction | speed KPH | gust KPH | rain 1hr cm | rain 24hr cm | rain mn cm | humidity % | barometer mb |
| 20260502211505 | 19 | 250 | 6.4 | 25.7 | 0.00 | 0.00 | 0.00 | 30 | 1013.4 |
| 20260502210005 | 19 | 240 | 17.7 | 30.6 | 0.00 | 0.00 | 0.00 | 30 | 1013.7 |
| 20260502204601 | 19 | 242 | 11.3 | 25.7 | 0.00 | 0.00 | 0.00 | 30 | 1014.0 |
| 20260502203059 | 18 | 250 | 11.3 | 29.0 | 0.00 | 0.00 | 0.00 | 30 | 1014.4 |
| 20260502201603 | 19 | 203 | 8.0 | 24.1 | 0.00 | 0.00 | 0.00 | 31 | 1014.7 |
| 20260502200052 | 17 | 311 | 14.5 | 29.0 | 0.00 | 0.00 | 0.00 | 30 | 1014.9 |
| 20260502194558 | 18 | 221 | 9.7 | 19.3 | 0.00 | 0.00 | 0.00 | 30 | 1015.3 |
| 20260502193101 | 17 | 206 | 8.0 | 24.1 | 0.00 | 0.00 | 0.00 | 31 | 1015.6 |
| 20260502191549 | 16 | 179 | 16.1 | 29.0 | 0.00 | 0.00 | 0.00 | 31 | 1016.0 |
| 20260502190041 | 16 | 214 | 11.3 | 22.5 | 0.00 | 0.00 | 0.00 | 30 | 1016.3 |
| 20260502184542 | 16 | 247 | 9.7 | 24.1 | 0.00 | 0.00 | 0.00 | 31 | 1016.7 |
| 20260502183038 | 16 | 207 | 12.9 | 27.4 | 0.00 | 0.00 | 0.00 | 30 | 1017.0 |
| 20260502181537 | 15 | 201 | 9.7 | 24.1 | 0.00 | 0.00 | 0.00 | 32 | 1017.2 |
| 20260502163019 | 13 | 196 | 14.5 | 19.3 | 0.00 | 0.00 | 0.00 | 34 | 1018.9 |
| 20260502161513 | 13 | 221 | 6.4 | 17.7 | 0.00 | 0.00 | 0.00 | 36 | 1019.1 |
| 20260502151605 | 12 | 279 | 4.8 | 14.5 | 0.00 | 0.00 | 0.00 | 43 | 1019.6 |
| 20260502123035 | 3 | 225 | 4.8 | 6.4 | 0.00 | 0.00 | 0.00 | 69 | 1020.2 |
| 20260502121518 | 3 | 212 | 4.8 | 12.9 | 0.00 | 0.00 | 0.00 | 70 | 1020.2 |
| 20260502114510 | 2 | 219 | 3.2 | 9.7 | 0.00 | 0.00 | 0.00 | 72 | 1020.0 |
| 20260502113007 | 2 | 253 | 1.6 | 6.4 | 0.00 | 0.00 | 0.00 | 72 | 1020.0 |
| 20260502111504 | 2 | 198 | 3.2 | 8.0 | 0.00 | 0.00 | 0.00 | 71 | 1019.8 |
| 20260502110002 | 2 | 224 | 3.2 | 8.0 | 0.00 | 0.00 | 0.00 | 70 | 1019.8 |
| 20260502104600 | 2 | 229 | 3.2 | 8.0 | 0.00 | 0.00 | 0.00 | 69 | 1019.9 |
| 20260502103058 | 3 | 216 | 4.8 | 8.0 | 0.00 | 0.00 | 0.00 | 67 | 1019.9 |
| 20260502101559 | 3 | 224 | 3.2 | 6.4 | 0.00 | 0.00 | 0.00 | 66 | 1019.8 |
| 20260502070034 | 5 | 240 | 3.2 | 6.4 | 0.00 | 0.00 | 0.00 | 60 | 1020.1 |
| 20260502064535 | 5 | 246 | 3.2 | 6.4 | 0.00 | 0.00 | 0.00 | 60 | 1020.1 |
| 20260502063044 | 5 | 234 | 3.2 | 6.4 | 0.00 | 0.00 | 0.00 | 60 | 1020.3 |
| 20260502061529 | 5 | 225 | 3.2 | 6.4 | 0.00 | 0.00 | 0.00 | 59 | 1020.1 |
| 20260502060027 | 5 | 229 | 1.6 | 6.4 | 0.00 | 0.00 | 0.00 | 58 | 1020.2 |
| 20260502054526 | 5 | 230 | 3.2 | 6.4 | 0.00 | 0.00 | 0.00 | 56 | 1020.2 |
| 20260502053024 | 6 | 223 | 1.6 | 6.4 | 0.00 | 0.00 | 0.00 | 54 | 1020.3 |
| 20260502051525 | 6 | 227 | 1.6 | 6.4 | 0.00 | 0.00 | 0.00 | 52 | 1020.2 |
| 20260502050032 | 6 | 222 | 1.6 | 6.4 | 0.00 | 0.00 | 0.00 | 52 | 1020.1 |
| 20260502044521 | 6 | 235 | 1.6 | 6.4 | 0.00 | 0.00 | 0.00 | 50 | 1020.1 |
| 20260502043020 | 6 | 229 | 1.6 | 6.4 | 0.00 | 0.00 | 0.00 | 50 | 1020.1 |
| 20260502041526 | 6 | 237 | 1.6 | 4.8 | 0.00 | 0.00 | 0.00 | 49 | 1020.0 |
| 20260502040019 | 7 | 237 | 1.6 | 4.8 | 0.00 | 0.00 | 0.00 | 46 | 1020.1 |
| 20260502034522 | 7 | 238 | 3.2 | 4.8 | 0.00 | 0.00 | 0.00 | 45 | 1020.1 |
| 20260502033020 | 7 | 238 | 1.6 | 4.8 | 0.00 | 0.00 | 0.00 | 43 | 1020.1 |
| 20260502031518 | 7 | 242 | 1.6 | 4.8 | 0.00 | 0.00 | 0.00 | 42 | 1020.1 |
| 20260502030118 | 8 | 271 | 1.6 | 4.8 | 0.00 | 0.00 | 0.00 | 41 | 1020.2 |
| 20260502024517 | 8 | 291 | 1.6 | 3.2 | 0.00 | 0.00 | 0.00 | 41 | 1020.1 |
| 20260502023016 | 8 | 292 | 0.0 | 3.2 | 0.00 | 0.00 | 0.00 | 40 | 1020.1 |
| 20260502021516 | 8 | 292 | 0.0 | 3.2 | 0.00 | 0.00 | 0.00 | 39 | 1020.0 |
| 20260502020016 | 9 | 292 | 0.0 | 1.6 | 0.00 | 0.00 | 0.00 | 38 | 1019.9 |
| 20260502014515 | 10 | 292 | 0.0 | 3.2 | 0.00 | 0.00 | 0.00 | 37 | 1019.7 |
| 20260502013015 | 10 | 292 | 1.6 | 6.4 | 0.00 | 0.00 | 0.00 | 36 | 1019.6 |
| 20260502011519 | 10 | 298 | 3.2 | 9.7 | 0.00 | 0.00 | 0.00 | 34 | 1019.6 |
| 20260502010019 | 11 | 298 | 3.2 | 11.3 | 0.00 | 0.00 | 0.00 | 34 | 1019.5 |
| 20260502004538 | 11 | 312 | 6.4 | 17.7 | 0.00 | 0.00 | 0.00 | 33 | 1019.5 |
| 20260502003013 | 11 | 286 | 9.7 | 19.3 | 0.00 | 0.00 | 0.00 | 33 | 1019.5 |
| 20260502001516 | 12 | 307 | 4.8 | 14.5 | 0.00 | 0.00 | 0.00 | 30 | 1019.4 |
| 20260502000011 | 12 | 26 | 0.0 | 6.4 | 0.00 | 0.00 | 0.00 | 32 | 1019.4 |
| 20260501234511 | 11 | 329 | 1.6 | 4.8 | 0.00 | 0.00 | 0.00 | 33 | 1019.5 |
| 20260501233010 | 11 | 16 | 3.2 | 12.9 | 0.00 | 0.00 | 0.00 | 33 | 1019.5 |
| 20260501231515 | 12 | 47 | 4.8 | 14.5 | 0.00 | 0.00 | 0.00 | 30 | 1019.4 |
| 20260501230009 | 11 | 360 | 3.2 | 9.7 | 0.00 | 0.00 | 0.00 | 33 | 1019.5 |
| 20260501224509 | 11 | 326 | 8.0 | 19.3 | 0.00 | 0.00 | 0.00 | 33 | 1019.6 |
| 20260501223010 | 11 | 339 | 9.7 | 17.7 | 0.00 | 0.00 | 0.00 | 31 | 1019.5 |
| 20260501221508 | 10 | 311 | 6.4 | 12.9 | 0.00 | 0.00 | 0.00 | 32 | 1019.6 |
| 20260501220007 | 10 | 320 | 4.8 | 12.9 | 0.00 | 0.00 | 0.00 | 34 | 1019.6 |
| 20260501214512 | 10 | 305 | 8.0 | 17.7 | 0.00 | 0.00 | 0.00 | 33 | 1019.6 |
| 20260501213020 | 11 | 288 | 4.8 | 14.5 | 0.00 | 0.00 | 0.00 | 33 | 1019.5 |